This is the latest recevied weather packets stored in our database for station/object W2TAO. If no packets are shown the sender has not sent any weather packets the latest 10 day(s).
| Time | Temp. | Humidity | Pressure | Rain* | Wind** | Luminosity | Snow |
|---|---|---|---|---|---|---|---|
| 1777417975 | 13.33° C | 55% | 1019 hPa | 0 mm | - | 24 W/m² | - |
| 1777417672 | 13.33° C | 54% | 1019 hPa | 0 mm | - | 32 W/m² | - |
| 1777417367 | 13.89° C | 55% | 1019.2 hPa | 0 mm | - | 53 W/m² | - |
| 1777417064 | 13.89° C | 52% | 1019.2 hPa | 0 mm | - | 78 W/m² | - |
| 1777416760 | 13.89° C | 51% | 1019.2 hPa | 0 mm | - | 72 W/m² | - |
| 1777416455 | 13.89° C | 54% | 1019.3 hPa | 0 mm | - | 62 W/m² | - |
| 1777416151 | 13.89° C | 52% | 1019.2 hPa | 0 mm | - | 43 W/m² | - |
| 1777415846 | 13.89° C | 53% | 1019.1 hPa | 0 mm | - | 42 W/m² | - |
| 1777415541 | 13.89° C | 49% | 1019 hPa | 0 mm | - | 40 W/m² | - |
| 1777415238 | 13.89° C | 51% | 1019.1 hPa | 0 mm | - | 53 W/m² | - |
| 1777414933 | 14.44° C | 52% | 1019.2 hPa | 0 mm | - | 68 W/m² | - |
| 1777414632 | 14.44° C | 47% | 1019.2 hPa | 0 mm | - | 55 W/m² | - |
| 1777414328 | 14.44° C | 48% | 1019.3 hPa | 0 mm | - | 51 W/m² | - |
| 1777414022 | 14.44° C | 47% | 1019.4 hPa | 0 mm | - | 48 W/m² | - |
| 1777413717 | 14.44° C | 46% | 1019.5 hPa | 0 mm | - | 55 W/m² | - |
| 1777413413 | 14.44° C | 48% | 1019.5 hPa | 0 mm | - | 66 W/m² | - |
| 1777413110 | 15° C | 46% | 1019.2 hPa | 0 mm | - | 87 W/m² | - |
| 1777412804 | 15° C | 48% | 1019.4 hPa | 0 mm | - | 101 W/m² | - |
| 1777412499 | 15° C | 46% | 1019.5 hPa | 0 mm | - | 109 W/m² | - |
| 1777412196 | 15° C | 48% | 1019.4 hPa | 0 mm | - | 141 W/m² | - |
| 1777411893 | 15° C | 49% | 1019.5 hPa | 0 mm | - | 133 W/m² | - |
| 1777411592 | 15° C | 45% | 1019.4 hPa | 0 mm | - | 129 W/m² | - |
| 1777411288 | 15° C | 47% | 1019.4 hPa | 0 mm | - | 130 W/m² | - |
| 1777410986 | 15° C | 48% | 1019.4 hPa | 0 mm | - | 141 W/m² | - |
| 1777410686 | 15.56° C | 49% | 1019.6 hPa | 0 mm | - | 177 W/m² | - |
* Rain latest hour (hover to see other rain measurements)
** Current wind speed in m/s (hover to see current wind gust speed)